SPACEMOBILE-008

Last updated on Mon Sep 21 2026 00:02:09 GMT+0000 (Coordinated Universal Time)

1 69589U 26139A 26263.53538346 .00001322 00000+0 90891-4 0 9992 2 69589 52.9951 189.6290 0002384 250.1365 109.9369 15.12990801 14417
UTC large
Height (km)
Speed (km/s)
/
Latitude / Longitude
Inclination (degrees)
Orbital Period (minutes)
Azimuth
Elevation
Range (km)
Doppler Factor

Next 0 passes for location: London (51.5072 / 0.1276)

No passes found over London.
SPACEMOBILE-008